User: anonymous   Login
Location: Luxembourg
(49.6117°N, 6.1300°E)
Time: 01:46:58
(UTC+01:00)
Language:

N. Korean satellite - Orbit

View from above orbital plane
View from above orbital plane
View from above satellite
View from above satellite

Ground track
Ground track

The orbit data is extracted from the following two-line orbital elements,

1 39026U 12072A   22016.48924704  .00010952  00000-0  34880-3 0  9994
2 39026  97.2591   9.5962 0033270 347.5700  12.4718 15.32181624505621
Epoch (UTC): 16 January 2022 11:44:30
Eccentricity: 0.0033270
inclination: 97.2591°
perigee height: 446 km
apogee height: 492 km
right ascension of ascending node: 9.5962°
argument of perigee: 347.5700°
revolutions per day: 15.32181624
mean anomaly at epoch: 12.4718°
orbit number at epoch: 50562

The dashed part of the orbit path shows where the satellite is in the earth's shadow,  

DLR